Tracking 18957 objects as of 23-Jan-2018
HD Live streaming from Space Station
objects crossing your sky now

SL-16 DEB

Track SL-16 DEB now!
10-day predictions


NORAD ID: 24301
Int'l Code: 1996-051E
Perigee: 845.4 km
Apogee: 1,154.9 km
Inclination: 71.0 °
Period: 105.0 minutes
Semi major axis: 7371 km
RCS: 0.0888 m2 (small)
Launch date: September 4, 1996
Source: Commonwealth of Independent States (former USSR) (CIS)
Launch site: TYURATAM MISSILE AND SPACE COMPLEX (TTMTR)

Note: This is SATELLITE DEBRIS
aabbcc
Your satellite tracking list
Your tracking list is empty




NASA's NSSDC Master Catalog

Two Line Element Set (TLE):
1 24301U 96051E   18022.43644632 -.00000040  00000-0  23473-5 0  9995
2 24301  70.9946  33.5703 0209972 197.7702 322.6898 13.71831675 70445
Source of the keplerian elements: AFSPC